Location: Gro� Glienicke
(52.4675°N, 13.1079°E)
Time: 18:06:17
(UTC+00:00)

SPOT 5 - Pass Details

Date: 06 July 2020
Orbit: 622 x 815 km, 98.3° (Epoch: 13 August)

Event Time Altitude Azimuth Distance (km) Brightness Sun altitude
Exits shadow 20:23:10 - 156° (SSE) 2,550 5.1 -6.4°
Reaches altitude 10° 20:23:51 10° 156° (SSE) 2,271 4.8 -6.5°
Maximum altitude 20:28:50 73° 72° (ENE) 759 3.0 -6.9°
Drops below altitude 10° 20:33:34 10° 348° (NNW) 2,163 6.6 -7.4°
Sets 20:35:45 0° 347° (NNW) 3,056 7.6 -7.6°
